Simultaneous Nadir Overpasses (SNOs) Predictions

Prediction of SNOs between METOP-A and TERRA Satellite Orbit:

Table of predicted SNOs for the next 14.0 days since TLE Epoch: 8/31/2019
Index Date (METOP-A) Time (METOP-A) Lat,Lon (METOP-A) SZA (METOP-A ) Date (TERRA) Time (TERRA) Lat,Lon (TERRA) SZA (TERRA ) Distance(km) Time Diff (sec)
1 09/02/2019 16:08:41 -81.45, 167.76 103.32 09/02/2019 16:09:03 -81.45, 167.81 103.30 1.18 22
2 09/02/2019 16:59:21 81.44, -24.65 76.73 09/02/2019 16:58:30 81.44, -24.75 76.69 1.60 51
3 09/05/2019 11:43:05 -81.45,-126.01 102.28 09/05/2019 11:43:17 -81.44,-126.07 102.29 1.50 12
4 09/05/2019 12:33:45 81.45, 41.55 77.76 09/05/2019 12:32:43 81.45, 41.73 77.75 2.95 62
5 09/08/2019 07:17:29 -81.45, -59.39 101.19 09/08/2019 07:17:31 -81.44, -59.59 101.21 3.32 2
6 09/08/2019 08:08:09 81.44, 108.14 78.85 09/08/2019 08:06:57 81.45, 108.18 78.83 0.78 72
7 09/11/2019 02:01:13 81.45,-160.59 79.86 09/11/2019 02:02:18 81.44,-160.69 79.88 1.64 65
8 09/11/2019 02:51:54 -81.45, 6.81 100.12 09/11/2019 02:51:45 -81.44, 6.86 100.13 1.09 9
9 09/13/2019 21:35:37 81.45, -94.43 80.93 09/13/2019 21:36:31 81.44, -94.29 80.97 2.39 54




NCC Satellite Simultaneous Nadir Overpasses (SNOs) Prediction Service
